EW1296 Weather Reports


time (UTC)temp
F
wind
direction
speed
knots
gust
knots
rain 1hr
in
rain 24hr
in
rain mn
in
humidity
%
barometer
mb
20260831234018 75 135 0.9 4.3 0.00 0.02 0.01 79 1018.4
20260831233537 75 135 0.9 4.3 0.00 0.02 0.01 78 1018.5
20260831233017 75 135 0.9 3.5 0.00 0.02 0.01 78 1018.5
20260831232517 75 135 1.7 3.5 0.00 0.02 0.01 78 1018.5
20260831232017 75 113 1.7 4.3 0.00 0.02 0.01 78 1018.4
20260831231518 75 158 0.9 1.7 0.00 0.02 0.01 77 1018.5
20260831231038 75 135 0.9 4.3 0.00 0.02 0.01 77 1018.5
20260831230517 75 113 1.7 5.2 0.00 0.02 0.01 76 1018.5
20260831230016 76 135 0.9 2.6 0.00 0.02 0.01 76 1018.5
20260831225537 76 135 0.9 2.6 0.00 0.02 0.01 76 1018.5
20260831225017 76 135 0.9 3.5 0.00 0.02 0.01 76 1018.6
20260831224538 76 135 1.7 3.5 0.00 0.02 0.01 75 1018.5
20260831224018 76 158 1.7 3.5 0.00 0.02 0.01 74 1018.5
20260831223518 76 135 2.6 4.3 0.00 0.02 0.01 74 1018.5
20260831223016 76 135 1.7 5.2 0.00 0.02 0.01 74 1018.5
20260831222517 76 135 0.9 5.2 0.00 0.02 0.01 74 1018.5
20260831222017 76 135 0.9 3.5 0.00 0.02 0.01 74 1018.5
20260831221518 77 135 0.9 3.5 0.00 0.02 0.01 74 1018.6
20260831221018 77 135 1.7 4.3 0.00 0.02 0.01 73 1018.6
20260831220518 77 203 2.6 4.3 0.00 0.02 0.01 73 1018.7
20260831220016 77 203 0.9 2.6 0.00 0.02 0.01 73 1018.7
20260831215516 77 225 0.9 4.3 0.00 0.02 0.01 73 1018.7
20260831215036 77 180 2.6 6.1 0.00 0.02 0.01 73 1018.7
20260831214517 77 135 1.7 4.3 0.00 0.02 0.01 72 1018.7
20260831214017 77 135 1.7 4.3 0.00 0.02 0.01 72 1018.9
20260831213516 77 135 1.7 3.5 0.00 0.02 0.01 72 1018.8
20260831213016 77 135 0.9 3.5 0.00 0.02 0.01 72 1018.8
20260831212516 77 135 0.9 3.5 0.00 0.02 0.01 71 1018.9
20260831212017 78 135 0.9 3.5 0.00 0.02 0.01 71 1018.9
20260831211517 77 248 0.9 4.3 0.00 0.02 0.01 71 1019.0
20260831211018 77 135 1.7 5.2 0.00 0.02 0.01 71 1019.0
20260831210516 78 225 1.7 7.8 0.00 0.02 0.01 71 1019.0
20260831210017 78 225 2.6 7.8 0.00 0.02 0.01 71 1019.0
20260831205516 77 158 0.9 4.3 0.00 0.02 0.01 72 1018.9
20260831205016 77 113 2.6 6.1 0.00 0.02 0.01 71 1018.9
20260831204516 77 135 1.7 4.3 0.00 0.02 0.01 71 1018.8
20260831204016 77 248 0.9 3.5 0.00 0.02 0.01 71 1018.9
20260831203517 77 203 1.7 5.2 0.00 0.02 0.01 71 1019.0
20260831203016 77 135 1.7 7.0 0.00 0.02 0.01 71 1019.0
20260831202516 77 158 1.7 6.1 0.00 0.02 0.01 71 1019.0
20260831202016 77 135 1.7 7.0 0.00 0.02 0.01 72 1019.1
20260831201516 76 135 1.7 4.3 0.00 0.02 0.01 73 1019.2
20260831201016 76 158 0.9 7.0 0.00 0.02 0.01 73 1019.4
20260831200517 76 135 1.7 5.2 0.00 0.02 0.01 73 1019.4
20260831200018 76 135 0.9 3.5 0.00 0.02 0.01 73 1019.4
20260831195516 76 135 1.7 6.1 0.00 0.02 0.01 73 1019.5
20260831195056 77 158 0.9 5.2 0.00 0.02 0.01 72 1019.6
20260831194516 77 135 1.7 4.3 0.00 0.02 0.01 72 1019.6
20260831194038 78 225 2.6 7.0 0.00 0.02 0.01 71 1019.7
20260831193518 78 225 0.9 3.5 0.00 0.02 0.01 71 1019.7
20260831193037 79 158 1.7 5.2 0.00 0.02 0.01 69 1019.6
20260831192518 79 158 1.7 3.5 0.00 0.02 0.01 66 1019.7
20260831192016 79 248 1.7 3.5 0.00 0.02 0.01 64 1019.6
20260831191517 79 135 1.7 6.1 0.00 0.02 0.01 63 1019.7
20260831191016 80 158 0.9 5.2 0.00 0.02 0.01 62 1019.8
20260831190516 81 225 2.6 5.2 0.00 0.02 0.01 61 1019.9
20260831190017 82 225 2.6 7.0 0.00 0.02 0.01 60 1019.8
20260831185516 82 158 1.7 4.3 0.00 0.02 0.01 59 1019.8
20260831185017 82 225 2.6 7.8 0.00 0.02 0.01 59 1019.9
20260831184557 82 203 2.6 8.7 0.00 0.02 0.01 59 1019.9
20260831184017 82 158 1.7 9.6 0.00 0.02 0.01 59 1019.9
20260831183517 82 225 1.7 3.5 0.00 0.02 0.01 59 1019.8
20260831183016 82 248 1.7 6.1 0.00 0.02 0.01 58 1019.9
20260831182517 82 180 1.7 9.6 0.00 0.02 0.01 58 1019.8
20260831182036 82 225 2.6 7.8 0.00 0.02 0.01 58 1019.9
20260831181516 82 135 3.5 9.6 0.00 0.02 0.01 57 1019.9
20260831181017 83 203 2.6 9.6 0.00 0.02 0.01 58 1020.1
20260831180517 83 248 3.5 9.6 0.00 0.02 0.01 57 1020.0
20260831180056 83 203 1.7 7.8 0.00 0.02 0.01 57 1020.0
20260831175516 83 225 3.5 7.8 0.00 0.02 0.01 56 1020.1
20260831175016 83 135 2.6 8.7 0.00 0.02 0.01 55 1020.2
20260831174518 83 135 1.7 5.2 0.00 0.02 0.01 56 1020.1
20260831174036 83 135 2.6 6.1 0.00 0.02 0.01 56 1020.0
20260831173517 83 113 3.5 9.6 0.00 0.02 0.01 55 1019.9
20260831173016 83 113 2.6 7.0 0.00 0.02 0.01 55 1019.9
20260831172536 83 135 3.5 7.8 0.00 0.02 0.01 55 1020.0
20260831172017 83 135 1.7 5.2 0.00 0.02 0.01 55 1020.0
20260831171516 83 135 3.5 8.7 0.00 0.02 0.01 54 1020.1
20260831171016 84 225 1.7 7.0 0.00 0.02 0.01 55 1020.0
20260831170516 83 135 2.6 6.1 0.00 0.02 0.01 55 1020.0
20260831170016 83 225 1.7 7.0 0.00 0.02 0.01 56 1020.0
20260831165516 83 135 3.5 9.6 0.00 0.02 0.01 54 1020.0
20260831165017 83 68 1.7 6.1 0.00 0.02 0.01 55 1020.1
20260831164516 83 113 2.6 8.7 0.00 0.02 0.01 55 1020.1
20260831164037 83 225 1.7 6.1 0.00 0.02 0.01 57 1020.0
20260831163516 82 135 1.7 7.8 0.00 0.02 0.01 56 1020.1
20260831163017 83 158 1.7 8.7 0.00 0.02 0.01 56 1020.1
20260831162516 83 135 2.6 8.7 0.00 0.02 0.01 56 1020.3
20260831162016 83 135 0.9 5.2 0.00 0.02 0.01 57 1020.2
20260831161516 83 135 2.6 7.0 0.00 0.02 0.01 57 1020.3
20260831161016 82 270 0.9 2.6 0.00 0.02 0.01 59 1020.4
20260831160516 81 158 0.9 3.5 0.00 0.02 0.01 59 1020.3
20260831160016 81 158 1.7 5.2 0.00 0.02 0.01 58 1020.3
20260831155516 81 113 1.7 5.2 0.00 0.02 0.01 59 1020.3
20260831155017 80 135 1.7 5.2 0.00 0.02 0.01 60 1020.2
20260831154516 80 135 1.7 4.3 0.00 0.02 0.01 60 1020.2
20260831154037 80 135 1.7 6.1 0.00 0.02 0.01 60 1020.3
20260831153517 79 90 3.5 7.0 0.00 0.02 0.01 60 1020.3
20260831153016 79 113 1.7 7.0 0.00 0.02 0.01 62 1020.3
20260831152516 79 90 0.9 3.5 0.00 0.02 0.01 63 1020.3
20260831152016 79 90 1.7 6.1 0.00 0.02 0.01 63 1020.3
20260831151516 79 113 4.3 7.8 0.00 0.02 0.01 63 1020.4
20260831151036 79 135 0.9 7.0 0.00 0.02 0.01 65 1020.4
20260831150516 78 68 1.7 3.5 0.00 0.02 0.01 65 1020.5
20260831150016 77 23 0.9 5.2 0.00 0.02 0.01 65 1020.6
20260831145516 77 113 2.6 7.0 0.00 0.02 0.01 66 1020.6
20260831145016 77 135 2.6 6.1 0.00 0.02 0.01 67 1020.6
20260831144516 77 113 1.7 5.2 0.00 0.02 0.01 68 1020.5
20260831144016 76 113 1.7 6.1 0.00 0.02 0.01 68 1020.6
20260831143536 76 113 1.7 3.5 0.00 0.02 0.01 68 1020.6
20260831143016 76 68 1.7 4.3 0.00 0.02 0.01 68 1020.6
20260831142516 76 68 1.7 4.3 0.00 0.02 0.01 68 1020.6
20260831142016 76 135 1.7 3.5 0.00 0.02 0.01 68 1020.5
20260831141516 76 113 2.6 5.2 0.00 0.02 0.01 68 1020.6
20260831141015 76 68 1.7 4.3 0.00 0.02 0.01 69 1020.5
20260831140537 76 0.0 2.6 0.00 0.02 0.01 71 1020.4
20260831140015 75 315 0.9 3.5 0.00 0.02 0.01 71 1020.4
20260831135516 75 45 0.9 3.5 0.00 0.02 0.01 72 1020.4
20260831135037 75 45 0.9 2.6 0.00 0.02 0.01 72 1020.4
20260831134516 75 45 1.7 3.5 0.00 0.02 0.01 72 1020.4
20260831134015 75 45 0.9 3.5 0.00 0.02 0.01 72 1020.3
20260831133516 74 68 0.9 3.5 0.00 0.02 0.01 73 1020.3
20260831133016 74 23 1.7 5.2 0.00 0.02 0.01 72 1020.4
20260831132517 74 45 1.7 6.1 0.00 0.02 0.01 72 1020.3
20260831132016 74 23 1.7 6.1 0.00 0.02 0.01 73 1020.3
20260831131516 74 45 2.6 7.0 0.00 0.02 0.01 73 1020.4
20260831131016 74 45 1.7 5.2 0.00 0.02 0.01 73 1020.4
20260831130516 73 23 2.6 6.1 0.00 0.02 0.01 73 1020.3
20260831130015 73 23 0.9 3.5 0.00 0.02 0.01 74 1020.4
20260831125515 73 23 2.6 5.2 0.00 0.02 0.01 74 1020.4
20260831125016 73 23 0.9 3.5 0.00 0.02 0.01 74 1020.3
20260831124516 73 68 1.7 5.2 0.01 0.02 0.01 74 1020.3
20260831124016 73 68 0.9 6.1 0.01 0.02 0.01 75 1020.3
20260831123516 73 0.0 1.7 0.01 0.02 0.01 75 1020.3
20260831123016 73 45 0.9 3.5 0.01 0.02 0.01 75 1020.4
20260831122516 73 68 1.7 6.1 0.01 0.02 0.01 75 1020.3
20260831122016 73 23 2.6 6.1 0.01 0.02 0.01 75 1020.2
20260831121516 73 45 0.9 6.1 0.01 0.02 0.01 75 1020.2
20260831121016 73 23 1.7 4.3 0.01 0.02 0.01 75 1020.3
20260831120516 73 23 0.9 5.2 0.01 0.02 0.01 75 1020.3
20260831120015 73 45 0.9 3.5 0.01 0.02 0.01 75 1020.2
20260831115516 73 68 1.7 3.5 0.01 0.02 0.01 75 1020.3
20260831115016 73 68 2.6 7.0 0.01 0.02 0.01 76 1020.1
20260831114516 73 90 0.9 3.5 0.00 0.01 0.00 77 1020.1
20260831114016 73 135 1.7 7.8 0.00 0.01 0.00 77 1019.9
20260831113515 73 68 0.9 2.6 0.00 0.01 0.00 77 1019.9
20260831113015 73 68 0.9 3.5 0.00 0.01 0.00 77 1019.8
20260831112515 73 68 1.7 3.5 0.00 0.01 0.00 77 1019.7
20260831112037 73 68 1.7 4.3 0.00 0.01 0.00 77 1019.9
20260831111515 73 45 0.9 2.6 0.00 0.01 0.00 76 1020.0
20260831111016 73 68 0.9 3.5 0.00 0.01 0.00 77 1020.0
20260831110536 73 68 1.7 5.2 0.00 0.01 0.00 77 1020.0
20260831110015 73 90 0.9 4.3 0.00 0.01 0.00 77 1020.0
20260831105515 73 45 0.9 3.5 0.00 0.01 0.00 77 1019.9
20260831105016 73 45 0.9 2.6 0.00 0.01 0.00 77 1019.8
20260831104515 73 68 1.7 3.5 0.00 0.01 0.00 77 1019.7
20260831104016 73 45 0.9 4.3 0.00 0.01 0.00 78 1019.6
20260831103515 73 45 1.7 5.2 0.00 0.01 0.00 77 1019.5
20260831103015 73 23 1.7 6.1 0.00 0.01 0.00 77 1019.6
20260831102516 73 23 0.9 6.1 0.00 0.01 0.00 77 1019.4
20260831102015 73 90 0.9 6.1 0.00 0.01 0.00 76 1019.4
20260831101516 73 90 0.9 3.5 0.00 0.01 0.00 76 1019.3
20260831101015 73 90 1.7 4.3 0.00 0.01 0.00 76 1019.3
20260831100535 73 68 0.9 2.6 0.00 0.01 0.00 76 1019.3
20260831100015 73 23 0.9 3.5 0.00 0.01 0.00 76 1019.3
20260831095515 73 90 0.9 3.5 0.00 0.01 0.00 76 1019.3
20260831095037 73 45 1.7 4.3 0.00 0.01 0.00 77 1019.2
20260831094535 73 45 0.9 1.7 0.00 0.01 0.00 77 1019.1
20260831094015 73 0.0 2.6 0.00 0.01 0.00 78 1019.0
20260831093516 73 0.0 1.7 0.00 0.01 0.00 78 1019.0
20260831093037 73 0 0.9 3.5 0.00 0.01 0.00 77 1018.9
20260831092515 73 0.0 1.7 0.00 0.01 0.00 77 1018.9
20260831092015 73 0 0.9 2.6 0.00 0.01 0.00 77 1019.0
20260831091517 73 0 0.9 2.6 0.00 0.01 0.00 77 1019.0
20260831091015 73 338 0.9 4.3 0.00 0.01 0.00 77 1018.9
20260831090515 73 0 0.9 4.3 0.00 0.01 0.00 76 1018.8
20260831090016 73 0 0.9 2.6 0.00 0.01 0.00 76 1018.7
20260831085515 73 0 0.9 2.6 0.00 0.01 0.00 76 1018.7
20260831085015 73 0 0.9 2.6 0.00 0.01 0.00 76 1018.7
20260831084516 73 270 0.9 3.5 0.00 0.01 0.00 76 1018.6
20260831084015 73 23 0.9 2.6 0.00 0.01 0.00 76 1018.8
20260831083515 74 0 0.9 4.3 0.00 0.01 0.00 76 1018.9
20260831083017 74 338 0.9 3.5 0.00 0.01 0.00 75 1019.0
20260831082516 74 315 1.7 4.3 0.00 0.01 0.00 75 1018.9
20260831082015 74 0.0 2.6 0.00 0.01 0.00 75 1018.7
20260831081515 74 0 0.9 3.5 0.00 0.01 0.00 75 1018.8
20260831081018 74 45 1.7 3.5 0.00 0.01 0.00 75 1018.8
20260831080517 74 338 1.7 6.1 0.00 0.01 0.00 75 1018.8
20260831080017 74 338 0.9 7.0 0.00 0.01 0.00 75 1018.8
20260831075518 74 0 0.9 3.5 0.00 0.01 0.00 75 1018.7
20260831075017 74 0 1.7 7.0 0.00 0.01 0.00 75 1018.6
20260831074517 74 23 1.7 5.2 0.00 0.01 0.00 76 1018.7
20260831074018 74 338 0.9 3.5 0.00 0.01 0.00 77 1018.9
20260831073518 74 45 0.9 3.5 0.00 0.01 0.00 77 1018.9
20260831073018 74 23 0.9 4.3 0.00 0.01 0.00 77 1018.8
20260831072517 74 0 1.7 4.3 0.00 0.01 0.00 77 1018.7
20260831072017 74 0 0.9 2.6 0.00 0.01 0.00 77 1018.7
20260831071538 74 315 0.9 2.6 0.00 0.01 0.00 76 1018.8
20260831071017 74 315 0.9 2.6 0.00 0.01 0.00 76 1018.8
20260831070517 74 315 0.9 3.5 0.00 0.01 0.00 76 1018.8
20260831070018 74 338 0.9 2.6 0.00 0.01 0.00 76 1018.8
20260831065517 74 338 0.9 4.3 0.00 0.01 0.00 76 1018.8
20260831065017 74 0 1.7 4.3 0.00 0.01 0.00 76 1018.8
20260831064517 74 315 0.9 3.5 0.00 0.01 0.00 77 1018.9
20260831064017 74 338 0.9 2.6 0.00 0.01 0.00 77 1018.9
20260831063517 74 338 0.9 1.7 0.00 0.01 0.00 77 1019.0
20260831063037 74 338 0.9 2.6 0.00 0.01 0.00 77 1018.9
20260831062517 74 0 1.7 3.5 0.00 0.01 0.00 77 1018.8
20260831062018 74 315 1.7 3.5 0.00 0.01 0.00 77 1018.9
20260831061517 75 315 2.6 7.0 0.00 0.01 0.00 77 1019.1
20260831061017 75 338 1.7 7.0 0.00 0.01 0.00 77 1019.0
20260831060518 75 338 1.7 4.3 0.00 0.01 0.00 77 1019.0
20260831060017 75 338 1.7 7.0 0.00 0.01 0.00 77 1019.1
20260831055517 75 315 2.6 7.0 0.00 0.01 0.00 77 1019.0
20260831055017 75 315 2.6 8.7 0.00 0.01 0.00 76 1019.1
20260831054517 75 338 2.6 8.7 0.00 0.01 0.00 77 1019.1
20260831054017 75 315 2.6 7.0 0.00 0.01 0.00 77 1019.0
20260831053517 75 338 1.7 7.0 0.00 0.01 0.00 77 1018.9
20260831053017 75 315 2.6 6.1 0.00 0.01 0.00 77 1018.9
20260831052517 75 0 1.7 5.2 0.00 0.01 0.00 77 1018.9
20260831052037 75 315 1.7 7.0 0.00 0.01 0.00 77 1019.0
20260831051518 76 315 2.6 6.1 0.00 0.01 0.00 78 1019.1
20260831051017 76 293 2.6 5.2 0.00 0.01 0.00 78 1019.2
20260831050517 76 315 1.7 5.2 0.00 0.01 0.00 79 1019.2
20260831050017 76 315 1.7 4.3 0.00 0.01 0.00 79 1019.2
20260831045517 76 270 1.7 4.3 0.00 0.01 0.00 80 1019.2
20260831045017 76 338 1.7 3.5 0.00 0.01 0.00 80 1019.1
20260831044517 76 315 1.7 4.3 0.00 0.01 0.00 81 1019.0
20260831044018 76 338 1.7 3.5 0.00 0.01 0.00 81 1019.1
20260831043518 76 0 1.7 3.5 0.00 0.01 0.00 82 1019.1
20260831043017 76 338 1.7 4.3 0.00 0.01 0.00 82 1019.0
20260831042517 76 315 1.7 3.5 0.00 0.01 0.00 83 1019.0
20260831042017 76 315 1.7 7.0 0.00 0.01 0.00 83 1018.9
20260831041538 76 338 1.7 6.1 0.00 0.01 0.00 84 1018.8
20260831041017 76 315 0.9 3.5 0.00 0.01 0.00 84 1018.9
20260831040517 76 338 0.9 2.6 0.00 0.01 0.00 85 1018.8
20260831040017 76 315 1.7 3.5 0.00 0.01 0.01 85 1018.9
20260831035516 76 315 1.7 3.5 0.00 0.01 0.01 85 1018.8
20260831035015 76 315 1.7 3.5 0.00 0.01 0.01 86 1018.8
20260831034515 77 315 0.9 3.5 0.00 0.01 0.01 86 1018.8
20260831034015 77 315 1.7 2.6 0.00 0.01 0.01 85 1018.8
20260831033537 77 315 0.9 2.6 0.00 0.01 0.01 85 1018.8
20260831033016 77 315 0.9 2.6 0.00 0.01 0.01 85 1018.8
20260831032515 77 293 0.9 2.6 0.00 0.01 0.01 85 1018.8
20260831032016 77 293 0.9 2.6 0.00 0.01 0.01 85 1018.6
20260831031515 77 248 0.9 2.6 0.00 0.01 0.01 84 1018.6
20260831031036 77 248 0.9 1.7 0.00 0.01 0.01 84 1018.5
20260831030515 77 0.0 1.7 0.00 0.01 0.01 84 1018.5
20260831030015 77 0.0 1.7 0.00 0.01 0.01 84 1018.5
20260831025516 77 0.0 1.7 0.00 0.01 0.01 84 1018.6
20260831025015 77 0.0 2.6 0.01 0.01 0.01 84 1018.8
20260831024515 77 0 0.9 2.6 0.01 0.01 0.01 84 1019.0
20260831024015 77 338 1.7 5.2 0.01 0.01 0.01 85 1019.1
20260831023515 77 0 1.7 5.2 0.01 0.01 0.01 85 1019.0
20260831023037 77 338 1.7 5.2 0.01 0.01 0.01 85 1019.1
20260831022537 78 338 0.9 2.6 0.01 0.01 0.01 86 1019.2
20260831022017 78 338 0.9 2.6 0.01 0.01 0.01 85 1019.2
20260831021517 78 338 1.7 4.3 0.01 0.01 0.01 85 1019.2
20260831021017 78 315 0.9 3.5 0.01 0.01 0.01 85 1019.2
20260831020517 78 0.0 3.5 0.01 0.01 0.01 85 1019.2
20260831020017 78 338 0.9 3.5 0.01 0.01 0.01 85 1019.2
20260831015518 78 338 0.9 2.6 0.01 0.01 0.01 84 1019.1
20260831015017 78 338 0.9 1.7 0.00 0.00 0.00 84 1019.1
20260831014517 78 338 0.9 3.5 0.00 0.00 0.00 84 1019.1
20260831014018 78 248 0.9 2.6 0.00 0.00 0.00 84 1019.1
20260831013517 78 0.0 1.7 0.00 0.00 0.00 84 1019.0
20260831013038 78 248 0.9 1.7 0.00 0.00 0.00 84 1019.0
20260831012538 78 0.0 2.6 0.00 0.00 0.00 84 1018.9
20260831012018 78 0.0 1.7 0.00 0.00 0.00 84 1018.8
20260831011538 78 248 0.9 1.7 0.00 0.00 0.00 83 1018.9
20260831011017 78 248 0.9 1.7 0.00 0.00 0.00 83 1018.8
20260831010517 78 0.0 1.7 0.00 0.00 0.00 83 1018.8
20260831010018 78 248 0.9 2.6 0.00 0.00 0.00 82 1018.7
20260831005517 78 0.0 0.9 0.00 0.00 0.00 82 1018.6
20260831005018 78 0.0 0.9 0.00 0.00 0.00 82 1018.5
20260831004516 78 248 0.9 1.7 0.00 0.00 0.00 82 1018.6
20260831004037 78 248 0.9 1.7 0.00 0.00 0.00 81 1018.5
20260831003517 78 248 0.9 2.6 0.00 0.00 0.00 81 1018.5
20260831003037 78 0.0 1.7 0.00 0.00 0.00 80 1018.4
20260831002517 78 0.0 2.6 0.00 0.00 0.00 80 1018.4
20260831002019 78 248 0.9 3.5 0.00 0.00 0.00 79 1018.4
20260831001517 78 248 0.9 2.6 0.00 0.00 0.00 78 1018.3
20260831001018 79 248 0.9 3.5 0.00 0.00 0.00 78 1018.3
20260831000537 79 248 1.7 3.5 0.00 0.00 0.00 77 1018.2
20260831000018 79 248 2.6 4.3 0.00 0.00 0.00 77 1018.2
20260830235038 79 248 1.7 4.3 0.00 0.00 0.00 76 1018.1
20260830234518 79 248 0.9 2.6 0.00 0.00 0.00 76 1018.0